User: anonymous   Login
Location: Arroyo Grande
(40.2671°N, 4.2512°W)
Time: 07:29:05
(UTC+00:00)
Language:

Cosmos 2278 Rocket - Orbit

View from above orbital plane
View from above orbital plane
View from above satellite
View from above satellite

Ground track
Ground track

The orbit data is extracted from the following two-line orbital elements,

1 23088U 94023B   24114.18035725  .00000202  00000-0  12928-3 0  9991
2 23088  71.0002  70.3459 0005699 264.7465  95.3007 14.14837920549397
Epoch (UTC): 23 April 2024 04:19:42
Eccentricity: 0.0005699
inclination: 71.0002°
perigee height: 839 km
apogee height: 847 km
right ascension of ascending node: 70.3459°
argument of perigee: 264.7465°
revolutions per day: 14.14837920
mean anomaly at epoch: 95.3007°
orbit number at epoch: 54939

The dashed part of the orbit path shows where the satellite is in the earth's shadow,  

DLR